LUCAS (JDRS-1)

Last updated on Fri Oct 24 2025 00:02:51 GMT+0000 (Coordinated Universal Time)

1 47202U 20089A 25296.66076564 -.00000223 00000+0 00000+0 0 9994 2 47202 0.0567 92.8234 0002382 132.0700 136.0766 1.00268790 18046
UTC large
Height (km)
Speed (km/s)
/
Latitude / Longitude
Inclination (degrees)
Orbital Period (minutes)
Azimuth
Elevation
Range (km)
Doppler Factor

Next 0 passes for location: London (51.5072 / 0.1276)

Sorry there are no passes over London.